DAL561 KEWR-KDTW

Flight info

Callsign DAL561
Flight time 1h 19m
Altitude 32000
Route GAYEL J95 CFB TRAAD JACCI FERRL2
Aircraft A320/M-SDE3FGHIRWY/LB1

Departure

Time 2026-05-06 01:38
Airport Newark Liberty International Airport (KEWR)

Arrival

Time 2026-05-06 02:57
Airport Detroit Metropolitan Wayne County Airport (KDTW)
Time Latitude Longitude Altitude Speed Heading
2026-05-06 01:00 40.68174 -74.18753 22 ft 0 kts 282°
2026-05-06 01:23 40.68170 -74.18731 22 ft 3 kts 282°
2026-05-06 01:24 40.68168 -74.18715 22 ft 4 kts 274°
2026-05-06 01:24 40.68169 -74.18681 24 ft 4 kts 263°
2026-05-06 01:24 40.68171 -74.18651 22 ft 4 kts 300°
2026-05-06 01:24 40.68158 -74.18644 22 ft 4 kts 12°
2026-05-06 01:25 40.68142 -74.18649 22 ft 0 kts 12°
2026-05-06 01:26 40.68144 -74.18648 22 ft 2 kts 12°
2026-05-06 01:26 40.68165 -74.18642 24 ft 5 kts 12°
2026-05-06 01:27 40.68206 -74.18625 22 ft 7 kts 28°
2026-05-06 01:27 40.68241 -74.18575 22 ft 8 kts 60°
2026-05-06 01:27 40.68253 -74.18511 22 ft 7 kts 88°
2026-05-06 01:27 40.68247 -74.18456 22 ft 6 kts 95°
2026-05-06 01:28 40.68244 -74.18408 22 ft 5 kts 94°
2026-05-06 01:28 40.68242 -74.18367 24 ft 4 kts 95°
2026-05-06 01:28 40.68238 -74.18308 22 ft 7 kts 95°
2026-05-06 01:28 40.68234 -74.18245 22 ft 10 kts 95°
2026-05-06 01:29 40.68237 -74.18094 22 ft 13 kts 90°
2026-05-06 01:29 40.68231 -74.17999 22 ft 10 kts 99°
2026-05-06 01:29 40.68204 -74.17932 23 ft 8 kts 119°
2026-05-06 01:29 40.68169 -74.17825 24 ft 18 kts 113°
2026-05-06 01:30 40.68164 -74.17711 24 ft 15 kts 43°
2026-05-06 01:30 40.68275 -74.17634 22 ft 27 kts 25°
2026-05-06 01:30 40.68432 -74.17536 23 ft 21 kts 27°
2026-05-06 01:30 40.68563 -74.17455 23 ft 20 kts 26°
2026-05-06 01:31 40.68686 -74.17377 23 ft 19 kts 24°
2026-05-06 01:31 40.68802 -74.17303 24 ft 18 kts 26°
2026-05-06 01:31 40.68910 -74.17233 22 ft 17 kts 26°
2026-05-06 01:31 40.69013 -74.17168 22 ft 16 kts 25°
2026-05-06 01:32 40.69110 -74.17107 22 ft 15 kts 26°
2026-05-06 01:32 40.69197 -74.17051 23 ft 13 kts 26°
2026-05-06 01:32 40.69277 -74.17000 23 ft 12 kts 26°
2026-05-06 01:32 40.69350 -74.16954 23 ft 11 kts 26°
2026-05-06 01:33 40.69437 -74.16903 23 ft 17 kts 24°
2026-05-06 01:33 40.69538 -74.16836 23 ft 19 kts 26°
2026-05-06 01:33 40.69650 -74.16762 22 ft 18 kts 26°
2026-05-06 01:33 40.69749 -74.16698 21 ft 14 kts 25°
2026-05-06 01:34 40.69834 -74.16646 21 ft 13 kts 25°
2026-05-06 01:34 40.69913 -74.16597 22 ft 12 kts 25°
2026-05-06 01:34 40.69984 -74.16550 22 ft 11 kts 26°
2026-05-06 01:34 40.70050 -74.16508 21 ft 10 kts 26°
2026-05-06 01:35 40.70067 -74.16472 21 ft 0 kts 89°
2026-05-06 01:35 40.70067 -74.16471 21 ft 0 kts 90°
2026-05-06 01:37 40.70067 -74.16453 20 ft 11 kts 90°
2026-05-06 01:37 40.70008 -74.16377 19 ft 10 kts 189°
2026-05-06 01:37 40.69933 -74.16423 19 ft 19 kts 206°
2026-05-06 01:37 40.69581 -74.16645 24 ft 90 kts 205°
2026-05-06 01:38 40.68780 -74.17151 28 ft 147 kts 205°
2026-05-06 01:38 40.67891 -74.17718 582 ft 150 kts 204°
2026-05-06 01:38 40.66886 -74.18026 1304 ft 152 kts 182°
2026-05-06 01:38 40.65830 -74.17712 2038 ft 160 kts 177°
2026-05-06 01:39 40.64715 -74.17858 2393 ft 170 kts 210°
2026-05-06 01:39 40.63774 -74.18937 2509 ft 193 kts 224°
2026-05-06 01:39 40.62578 -74.20025 2533 ft 215 kts 209°
2026-05-06 01:39 40.61399 -74.21141 2739 ft 223 kts 235°
2026-05-06 01:40 40.61075 -74.23229 3607 ft 237 kts 272°
2026-05-06 01:40 40.61720 -74.25301 4599 ft 255 kts 301°
2026-05-06 01:40 40.63188 -74.26686 5530 ft 278 kts 334°
2026-05-06 01:40 40.65117 -74.27235 6487 ft 288 kts 345°
2026-05-06 01:41 40.67122 -74.27501 7424 ft 292 kts 350°
2026-05-06 01:41 40.69158 -74.27661 8366 ft 294 kts 352°
2026-05-06 01:41 40.71210 -74.27801 9307 ft 296 kts 352°
2026-05-06 01:41 40.73353 -74.27962 10130 ft 303 kts 351°
2026-05-06 01:42 40.75460 -74.28156 10400 ft 327 kts 351°
2026-05-06 01:42 40.77783 -74.28407 10922 ft 340 kts 351°
2026-05-06 01:42 40.80162 -74.28672 11634 ft 346 kts 351°
2026-05-06 01:42 40.82592 -74.28951 12396 ft 352 kts 351°
2026-05-06 01:43 40.85038 -74.29238 13125 ft 357 kts 351°
2026-05-06 01:43 40.87531 -74.29531 13849 ft 362 kts 351°
2026-05-06 01:43 40.90060 -74.29821 14505 ft 367 kts 351°
2026-05-06 01:43 40.92609 -74.30111 15226 ft 369 kts 351°
2026-05-06 01:44 40.95183 -74.30407 15916 ft 373 kts 350°
2026-05-06 01:44 40.97782 -74.30708 16555 ft 377 kts 350°
2026-05-06 01:44 41.00414 -74.31013 17199 ft 382 kts 350°
2026-05-06 01:44 41.03042 -74.31322 17831 ft 387 kts 350°
2026-05-06 01:45 41.05738 -74.31641 18421 ft 391 kts 350°
2026-05-06 01:45 41.08463 -74.31962 18967 ft 395 kts 350°
2026-05-06 01:45 41.11216 -74.32286 19534 ft 399 kts 350°
2026-05-06 01:45 41.13997 -74.32611 20095 ft 403 kts 350°
2026-05-06 01:46 41.16801 -74.32938 20642 ft 407 kts 350°
2026-05-06 01:46 41.19632 -74.33266 21194 ft 411 kts 350°
2026-05-06 01:46 41.22493 -74.33601 21771 ft 414 kts 350°
2026-05-06 01:46 41.25373 -74.33936 22321 ft 418 kts 350°
2026-05-06 01:47 41.28282 -74.34273 22877 ft 421 kts 350°
2026-05-06 01:47 41.31217 -74.34614 23409 ft 425 kts 350°
2026-05-06 01:47 41.34170 -74.34996 23881 ft 426 kts 346°
2026-05-06 01:47 41.37014 -74.35971 24332 ft 420 kts 333°
2026-05-06 01:48 41.39616 -74.37680 24731 ft 415 kts 321°
2026-05-06 01:48 41.41865 -74.40026 25159 ft 408 kts 309°
2026-05-06 01:48 41.43696 -74.42868 25595 ft 402 kts 299°
2026-05-06 01:48 41.45144 -74.46036 26028 ft 400 kts 294°
2026-05-06 01:49 41.46539 -74.49258 26462 ft 402 kts 294°
2026-05-06 01:49 41.47938 -74.52495 26888 ft 404 kts 295°
2026-05-06 01:49 41.49342 -74.55748 27296 ft 405 kts 295°
2026-05-06 01:49 41.50750 -74.59016 27699 ft 407 kts 295°
2026-05-06 01:50 41.52165 -74.62299 28117 ft 409 kts 295°
2026-05-06 01:50 41.53587 -74.65602 28515 ft 411 kts 295°
2026-05-06 01:50 41.55015 -74.68919 28904 ft 413 kts 295°
2026-05-06 01:50 41.56451 -74.72252 29284 ft 415 kts 295°
2026-05-06 01:51 41.57560 -74.74833 29568 ft 417 kts 295°
2026-05-06 01:51 41.59008 -74.78204 29927 ft 419 kts 295°
2026-05-06 01:51 41.60459 -74.81585 30241 ft 420 kts 295°
2026-05-06 01:51 41.61910 -74.84967 30551 ft 419 kts 295°
2026-05-06 01:52 41.63361 -74.88358 30826 ft 421 kts 295°
2026-05-06 01:52 41.64819 -74.91764 31105 ft 423 kts 295°
2026-05-06 01:52 41.66280 -74.95186 31397 ft 424 kts 295°
2026-05-06 01:52 41.67734 -74.98610 31735 ft 423 kts 295°
2026-05-06 01:53 41.69162 -75.01971 31842 ft 417 kts 295°
2026-05-06 01:53 41.70569 -75.05271 31860 ft 402 kts 295°
2026-05-06 01:53 41.73289 -75.11669 31854 ft 392 kts 295°
2026-05-06 01:54 41.75965 -75.18006 31856 ft 390 kts 295°
2026-05-06 01:54 41.78632 -75.24339 31860 ft 390 kts 295°
2026-05-06 01:55 41.81285 -75.30636 31857 ft 391 kts 295°
2026-05-06 01:55 41.83953 -75.36979 31852 ft 391 kts 295°
2026-05-06 01:56 41.86622 -75.43316 31868 ft 390 kts 295°
2026-05-06 01:56 41.89278 -75.49656 31867 ft 389 kts 295°
2026-05-06 01:57 41.91901 -75.55947 31852 ft 389 kts 295°
2026-05-06 01:57 41.94534 -75.62279 31851 ft 388 kts 295°
2026-05-06 01:58 41.97167 -75.68614 31847 ft 388 kts 295°
2026-05-06 01:58 41.99796 -75.74937 31854 ft 388 kts 295°
2026-05-06 01:59 42.02427 -75.81272 31855 ft 388 kts 295°
2026-05-06 01:59 42.05047 -75.87590 31870 ft 386 kts 295°
2026-05-06 02:00 42.07654 -75.93900 31867 ft 385 kts 294°
2026-05-06 02:00 42.10226 -76.00150 31863 ft 384 kts 294°
2026-05-06 02:01 42.12801 -76.06442 31850 ft 383 kts 294°
2026-05-06 02:01 42.15227 -76.12809 31840 ft 378 kts 286°
2026-05-06 02:02 42.16219 -76.19678 31858 ft 374 kts 274°
2026-05-06 02:02 42.16487 -76.23223 31845 ft 386 kts 274°
2026-05-06 02:02 42.16763 -76.26859 31837 ft 393 kts 274°
2026-05-06 02:03 42.17332 -76.34260 31846 ft 403 kts 274°
2026-05-06 02:03 42.17921 -76.41908 31847 ft 410 kts 274°
2026-05-06 02:04 42.18501 -76.49517 31845 ft 411 kts 274°
2026-05-06 02:04 42.19071 -76.57175 31859 ft 410 kts 274°
2026-05-06 02:05 42.19635 -76.64820 31862 ft 409 kts 274°
2026-05-06 02:05 42.20198 -76.72461 31866 ft 410 kts 274°
2026-05-06 02:06 42.20752 -76.80113 31860 ft 410 kts 274°
2026-05-06 02:06 42.21303 -76.87712 31877 ft 410 kts 274°
2026-05-06 02:07 42.21848 -76.95353 31882 ft 409 kts 274°
2026-05-06 02:07 42.22386 -77.02978 31884 ft 408 kts 274°
2026-05-06 02:08 42.22919 -77.10587 31878 ft 407 kts 274°
2026-05-06 02:08 42.23433 -77.18137 31867 ft 407 kts 274°
2026-05-06 02:09 42.23955 -77.25725 31852 ft 405 kts 274°
2026-05-06 02:09 42.24472 -77.33287 31849 ft 405 kts 273°
2026-05-06 02:10 42.24983 -77.40853 31851 ft 405 kts 273°
2026-05-06 02:10 42.25484 -77.48434 31849 ft 405 kts 273°
2026-05-06 02:11 42.26409 -77.55889 31858 ft 407 kts 281°
2026-05-06 02:11 42.27759 -77.63313 31873 ft 407 kts 281°
2026-05-06 02:12 42.29101 -77.70737 31882 ft 407 kts 281°
2026-05-06 02:12 42.30436 -77.78168 31882 ft 407 kts 281°
2026-05-06 02:13 42.31770 -77.85596 31876 ft 407 kts 281°
2026-05-06 02:13 42.33090 -77.93022 31875 ft 406 kts 281°
2026-05-06 02:14 42.34405 -78.00452 31900 ft 406 kts 281°
2026-05-06 02:14 42.35714 -78.07873 31900 ft 406 kts 281°
2026-05-06 02:15 42.37013 -78.15248 31902 ft 406 kts 281°
2026-05-06 02:15 42.38313 -78.22671 31902 ft 405 kts 281°
2026-05-06 02:16 42.39600 -78.30084 31897 ft 405 kts 281°
2026-05-06 02:16 42.40894 -78.37504 31899 ft 405 kts 281°
2026-05-06 02:17 42.42185 -78.44927 31902 ft 405 kts 281°
2026-05-06 02:17 42.43468 -78.52349 31901 ft 405 kts 281°
2026-05-06 02:18 42.44732 -78.59725 31901 ft 405 kts 280°
2026-05-06 02:18 42.45997 -78.67162 31921 ft 405 kts 280°
2026-05-06 02:19 42.47044 -78.74616 31936 ft 401 kts 272°
2026-05-06 02:19 42.47296 -78.82136 31910 ft 399 kts 271°
2026-05-06 02:20 42.47670 -78.93395 31897 ft 398 kts 271°
2026-05-06 02:21 42.47913 -79.00884 31900 ft 397 kts 271°
2026-05-06 02:21 42.48148 -79.08361 31918 ft 397 kts 272°
2026-05-06 02:22 42.48383 -79.15774 31918 ft 396 kts 271°
2026-05-06 02:22 42.48612 -79.23213 31914 ft 395 kts 271°
2026-05-06 02:23 42.48826 -79.30638 31910 ft 394 kts 271°
2026-05-06 02:23 42.49041 -79.38050 31904 ft 393 kts 271°
2026-05-06 02:24 42.49249 -79.45445 31917 ft 392 kts 272°
2026-05-06 02:24 42.49447 -79.52823 31908 ft 391 kts 271°
2026-05-06 02:25 42.49645 -79.60131 31903 ft 391 kts 271°
2026-05-06 02:25 42.49843 -79.67479 31898 ft 390 kts 271°
2026-05-06 02:26 42.50030 -79.74831 31889 ft 390 kts 271°
2026-05-06 02:26 42.50217 -79.82174 31904 ft 390 kts 271°
2026-05-06 02:27 42.50399 -79.89455 31901 ft 389 kts 271°
2026-05-06 02:27 42.50574 -79.96764 31899 ft 388 kts 271°
2026-05-06 02:28 42.50742 -80.04065 31892 ft 387 kts 271°
2026-05-06 02:28 42.50903 -80.11353 31886 ft 387 kts 271°
2026-05-06 02:29 42.51068 -80.18643 31896 ft 387 kts 271°
2026-05-06 02:29 42.51232 -80.25924 31897 ft 387 kts 270°
2026-05-06 02:30 42.51514 -80.40318 31873 ft 385 kts 270°
2026-05-06 02:31 42.51660 -80.47570 31874 ft 385 kts 270°
2026-05-06 02:31 42.51797 -80.54814 31885 ft 384 kts 270°
2026-05-06 02:32 42.51922 -80.62047 31893 ft 383 kts 270°
2026-05-06 02:32 42.52014 -80.69256 31889 ft 382 kts 270°
2026-05-06 02:33 42.52079 -80.76413 31887 ft 382 kts 270°
2026-05-06 02:33 42.52100 -80.78844 31885 ft 382 kts 270°
2026-05-06 02:34 42.52210 -80.90806 31876 ft 382 kts 270°
2026-05-06 02:34 42.52274 -80.97983 31904 ft 380 kts 269°
2026-05-06 02:35 42.52330 -81.05134 31901 ft 379 kts 269°
2026-05-06 02:35 42.52357 -81.08716 31444 ft 379 kts 269°
2026-05-06 02:35 42.52382 -81.12288 31171 ft 381 kts 269°
2026-05-06 02:35 42.52403 -81.15844 30926 ft 384 kts 269°
2026-05-06 02:36 42.52425 -81.19473 30681 ft 386 kts 269°
2026-05-06 02:36 42.52448 -81.23127 30434 ft 389 kts 269°
2026-05-06 02:36 42.52469 -81.26811 30103 ft 392 kts 268°
2026-05-06 02:36 42.52487 -81.30519 29041 ft 393 kts 268°
2026-05-06 02:37 42.52508 -81.34158 28718 ft 377 kts 268°
2026-05-06 02:37 42.52484 -81.37631 28439 ft 363 kts 264°
2026-05-06 02:37 42.52296 -81.41103 28126 ft 378 kts 264°
2026-05-06 02:37 42.52061 -81.44665 27858 ft 389 kts 263°
2026-05-06 02:38 42.51784 -81.48338 27590 ft 394 kts 262°
2026-05-06 02:38 42.51487 -81.52044 27327 ft 396 kts 262°
2026-05-06 02:38 42.51184 -81.55765 27068 ft 398 kts 262°
2026-05-06 02:38 42.50880 -81.59505 26812 ft 400 kts 262°
2026-05-06 02:39 42.50580 -81.63262 26558 ft 402 kts 262°
2026-05-06 02:39 42.50286 -81.67024 26191 ft 402 kts 262°
2026-05-06 02:39 42.49995 -81.70793 25162 ft 401 kts 262°
2026-05-06 02:39 42.49706 -81.74530 24153 ft 398 kts 262°
2026-05-06 02:40 42.49421 -81.78205 23151 ft 397 kts 261°
2026-05-06 02:40 42.49129 -81.81920 22025 ft 398 kts 261°
2026-05-06 02:40 42.48837 -81.85648 20943 ft 398 kts 261°
2026-05-06 02:40 42.48554 -81.89367 19954 ft 396 kts 261°
2026-05-06 02:41 42.48266 -81.93095 19203 ft 401 kts 262°
2026-05-06 02:41 42.47971 -81.96842 18224 ft 400 kts 261°
2026-05-06 02:41 42.47684 -82.00553 17317 ft 392 kts 262°
2026-05-06 02:41 42.47404 -82.04195 16464 ft 387 kts 261°
2026-05-06 02:42 42.47120 -82.07781 15829 ft 379 kts 261°
2026-05-06 02:42 42.46831 -82.11297 15089 ft 374 kts 261°
2026-05-06 02:42 42.46545 -82.14770 14643 ft 366 kts 261°
2026-05-06 02:42 42.46274 -82.18077 14529 ft 349 kts 261°
2026-05-06 02:43 42.46010 -82.21264 14396 ft 328 kts 261°
2026-05-06 02:43 42.45771 -82.24225 13960 ft 309 kts 261°
2026-05-06 02:43 42.45542 -82.27073 13696 ft 304 kts 261°
2026-05-06 02:43 42.45308 -82.29915 13433 ft 305 kts 261°
2026-05-06 02:44 42.45072 -82.32753 13165 ft 302 kts 261°
2026-05-06 02:44 42.44789 -82.35563 12896 ft 299 kts 259°
2026-05-06 02:44 42.44457 -82.38345 12601 ft 300 kts 258°
2026-05-06 02:44 42.44104 -82.41143 11984 ft 303 kts 258°
2026-05-06 02:45 42.43748 -82.43933 11473 ft 299 kts 258°
2026-05-06 02:45 42.43400 -82.46725 10946 ft 298 kts 258°
2026-05-06 02:45 42.43066 -82.49471 10532 ft 292 kts 259°
2026-05-06 02:45 42.42842 -82.52200 10028 ft 293 kts 262°
2026-05-06 02:46 42.42663 -82.54878 9907 ft 278 kts 262°
2026-05-06 02:46 42.42502 -82.57432 9779 ft 264 kts 262°
2026-05-06 02:46 42.42351 -82.59876 9493 ft 259 kts 262°
2026-05-06 02:46 42.42197 -82.62287 9106 ft 256 kts 262°
2026-05-06 02:47 42.42040 -82.64679 8656 ft 256 kts 262°
2026-05-06 02:47 42.41873 -82.67095 8222 ft 253 kts 262°
2026-05-06 02:47 42.41700 -82.69428 7571 ft 251 kts 262°
2026-05-06 02:47 42.41504 -82.71775 6891 ft 250 kts 262°
2026-05-06 02:48 42.41292 -82.74107 6199 ft 249 kts 262°
2026-05-06 02:48 42.41063 -82.76419 5422 ft 249 kts 263°
2026-05-06 02:48 42.40804 -82.78797 4590 ft 252 kts 262°
2026-05-06 02:48 42.40530 -82.81145 4040 ft 256 kts 263°
2026-05-06 02:49 42.40243 -82.83516 3611 ft 255 kts 262°
2026-05-06 02:49 42.39951 -82.85871 3176 ft 253 kts 262°
2026-05-06 02:49 42.39660 -82.88205 2982 ft 252 kts 262°
2026-05-06 02:49 42.39365 -82.90531 2987 ft 252 kts 262°
2026-05-06 02:50 42.39069 -82.92845 2984 ft 237 kts 262°
2026-05-06 02:50 42.38789 -82.95014 2988 ft 234 kts 262°
2026-05-06 02:50 42.38500 -82.97173 2988 ft 233 kts 262°
2026-05-06 02:50 42.38209 -82.99368 2989 ft 233 kts 262°
2026-05-06 02:51 42.37926 -83.01495 2989 ft 233 kts 263°
2026-05-06 02:51 42.37639 -83.03650 2990 ft 233 kts 262°
2026-05-06 02:51 42.37348 -83.05837 2987 ft 230 kts 262°
2026-05-06 02:51 42.37072 -83.07853 2991 ft 214 kts 262°
2026-05-06 02:52 42.36805 -83.09825 2991 ft 212 kts 262°
2026-05-06 02:52 42.36540 -83.11788 2999 ft 213 kts 262°
2026-05-06 02:52 42.36280 -83.13758 2993 ft 213 kts 262°
2026-05-06 02:52 42.36019 -83.15751 2988 ft 212 kts 262°
2026-05-06 02:53 42.35754 -83.17728 2988 ft 211 kts 262°
2026-05-06 02:53 42.35424 -83.19632 2982 ft 213 kts 250°
2026-05-06 02:53 42.34668 -83.21340 2983 ft 206 kts 240°
2026-05-06 02:53 42.33891 -83.22920 3001 ft 192 kts 240°
2026-05-06 02:54 42.33159 -83.24401 3018 ft 188 kts 239°
2026-05-06 02:54 42.32274 -83.25697 2977 ft 191 kts 220°
2026-05-06 02:54 42.31146 -83.26626 2746 ft 186 kts 213°
2026-05-06 02:54 42.30052 -83.27435 2505 ft 173 kts 213°
2026-05-06 02:55 42.29054 -83.28168 2295 ft 156 kts 214°
2026-05-06 02:55 42.28139 -83.28845 2090 ft 146 kts 214°
2026-05-06 02:55 42.27273 -83.29486 1891 ft 141 kts 214°
2026-05-06 02:55 42.26414 -83.30121 1698 ft 140 kts 214°
2026-05-06 02:56 42.25853 -83.30533 1570 ft 138 kts 214°
2026-05-06 02:56 42.24735 -83.31361 1314 ft 136 kts 212°
2026-05-06 02:56 42.23909 -83.31971 1128 ft 135 kts 211°
2026-05-06 02:56 42.23355 -83.32381 1006 ft 133 kts 210°
2026-05-06 02:57 42.22299 -83.33162 774 ft 128 kts 209°
2026-05-06 02:57 42.21534 -83.33729 646 ft 115 kts 207°
2026-05-06 02:57 42.21049 -83.34088 648 ft 37 kts 209°
2026-05-06 02:57 42.20949 -83.34161 646 ft 23 kts 207°
2026-05-06 02:58 42.20841 -83.34240 646 ft 28 kts 209°
2026-05-06 02:58 42.20662 -83.34398 647 ft 33 kts 224°
2026-05-06 02:58 42.20553 -83.34599 649 ft 19 kts 239°
2026-05-06 02:58 42.20524 -83.34664 648 ft 0 kts 238°
2026-05-06 02:59 42.20495 -83.34727 649 ft 13 kts 238°
2026-05-06 02:59 42.20428 -83.34794 648 ft 12 kts 208°
2026-05-06 03:00 42.20361 -83.34845 649 ft 9 kts 209°
2026-05-06 03:00 42.20284 -83.34901 649 ft 32 kts 208°
2026-05-06 03:00 42.20180 -83.35034 647 ft 12 kts 265°
2026-05-06 03:00 42.20178 -83.35113 647 ft 9 kts 269°
2026-05-06 03:01 42.20177 -83.35218 648 ft 13 kts 269°
2026-05-06 03:01 42.20174 -83.35347 648 ft 15 kts 268°
2026-05-06 03:01 42.20169 -83.35540 647 ft 20 kts 268°
2026-05-06 03:01 42.20167 -83.35797 646 ft 23 kts 268°
2026-05-06 03:02 42.20164 -83.35988 646 ft 18 kts 270°
2026-05-06 03:02 42.20169 -83.36121 648 ft 0 kts 299°
2026-05-06 03:02 42.20190 -83.36131 648 ft 14 kts 351°
2026-05-06 03:02 42.20244 -83.36088 646 ft 7 kts 24°
2026-05-06 03:03 42.20273 -83.36071 646 ft 2 kts 24°
2026-05-06 03:03 42.20297 -83.36053 646 ft 9 kts 31°
2026-05-06 03:03 42.20325 -83.36066 646 ft 5 kts 317°
2026-05-06 03:03 42.20336 -83.36089 646 ft 1 kts 299°
2026-05-06 03:04 42.20338 -83.36096 646 ft 1 kts 299°
2026-05-06 03:04 42.20340 -83.36100 646 ft 0 kts 299°
2026-05-06 03:04 42.20342 -83.36104 646 ft 0 kts 299°
2026-05-06 03:04 42.20343 -83.36106 646 ft 0 kts 299°